Regional Weather Roundup
Issued by NWS

Home | Current Version | Previous Version | Graphics & Text | Print | Product List | Glossary On
Versions: 1 2 3 4 5 6 7 8 9 10 11 12 13 14 15 16 17 18 19 20 21 22 23 24 25 26 27 28 29 30 31 32 33 34 35 36 37 38 39 40 41 42 43 44 45 46 47 48 49 50
000
ASUS45 KSLC 161910
RWRUT

UTAH REGIONAL WEATHER ROUNDUP
NATIONAL WEATHER SERVICE SALT LAKE CITY UT
1200 PM MST MON JAN 16 2017

UTZ001>011-023>025-162000-

NORTHERN UTAH

CITY           SKY/WX    TMP DP  RH WIND       PRES   REMARKS
BRIGHAM CITY     N/A     19  12  73 CALM      30.33S
HILL AFB       SUNNY     19   9  63 E12       30.28F WCI   7
LOGAN          SUNNY      6   5  95 W3        30.35S FOG
OGDEN          SUNNY     23  14  68 CALM      30.30S
SALT LAKE CITY MOSUNNY   28  17  63 NW6       30.30F WCI  22
TOOELE VALLEY  CLOUDY    27  21  80 N7        30.32S WCI  19
WENDOVER       MOSUNNY   25  18  74 CALM      30.32F
HEBER CITY     SUNNY     19  12  73 CALM      30.25F
WEST JORDAN    CLOUDY    27  23  87 W3        30.29S

$$

UTZ011>015-024>027-162000-

CENTRAL/NORTHEAST UTAH

CITY           SKY/WX    TMP DP  RH WIND       PRES   REMARKS
PROVO AIRPORT  SUNNY     28  21  75 W6        30.29S WCI  22
MOAB/CANYONLAN SUNNY     41  30  65 N5        30.06F
DELTA          SUNNY     30  21  69 NW3       30.26F
PRICE          SUNNY     37  13  37 NE21      30.08F WCI  26
RICHFIELD      CLOUDY    32  21  64 NE8       30.23F WCI  25
ROOSEVELT      SUNNY     30  21  69 E6        30.22F WCI  24
VERNAL         CLOUDY    26  21  81 CALM      30.19F

$$

UTZ013>016-019>022-027-162000-

SOUTHERN UTAH

CITY           SKY/WX    TMP DP  RH WIND       PRES   REMARKS
BRYCE CANYON   SUNNY     24  16  71 NW10      30.10F WCI  14
CEDAR CITY     CLOUDY    31  19  61 N7        30.18F WCI  24
MILFORD        CLOUDY    29  20  69 N12       30.24S WCI  19
ST GEORGE      CLEAR     43  25  49 SW6       30.17F
HANKSVILLE     SUNNY     41  27  56 MISG      30.11F
KANAB          SUNNY     43  19  39 N5        30.12F
BLANDING       PTSUNNY   40  28  62 SE5       30.06F

$$

REGIONAL REPORTS     COLORADO/ARIZONA

CITY           SKY/WX    TMP DP  RH WIND       PRES   REMARKS
CRAIG, CO      CLOUDY    19  12  74 W7        30.15F WCI  10
GRAND JUNCTION SUNNY     39  19  44 S3        30.07F
RIFLE, CO      CLOUDY    32  19  58 NW6       30.08F WCI  26
MONTROSE, CO   CLOUDY    34  20  56 NW8       30.08S WCI  27
CORTEZ, CO     CLOUDY    38  29  70 W10       29.98S WCI  31
COLORADO CITY    N/A     41  27  56 W8        30.12F
PAGE, AZ       SUNNY     44  22  41 CALM      30.06F
GRAND CANYON   PTSUNNY   39  31  72 S6        30.06F WCI  35
KINGMAN, AZ    SUNNY     45  26  47 N12       30.10F
FLAGSTAFF, AZ  CLOUDY    37  32  82 VRB3      30.04F

$$

REGIONAL REPORTS    NEVADA/IDAHO/WYOMING

CITY           SKY/WX    TMP DP  RH WIND       PRES   REMARKS
LAS VEGAS, NV  MOSUNNY   50  20  30 NE13G20   30.15F
ELY, NY        CLOUDY    18  16  92 N7        30.24F WCI   9
ELKO, NV       CLOUDY    23  17  78 CALM      30.31F
POCATELLO, ID  CLOUDY     6   1  80 W3        30.36F
BURLEY, ID     CLOUDY    16  10  77 N5        30.35S WCI   9
EVANSTON, WY   CLOUDY     7   5  91 CALM      30.17F
ROCK SPRINGS,  CLOUDY     2  -3  80 W6        30.18F WCI  -9

$$



USA.gov is the U.S. government's official web portal to all federal, state and local government web resources and services.